IRIDIUM 33 DEB, 34926

Orbit data source: Space-Track

IRIDIUM 33 DEB, 34926 is space debris in LEO originally from a launch on Sun, 14 Sep 1997 UTC launched from the Tyuratam Missile And Space Complex (TTMTR). The debris from Iridium 33, an American commercial communications satellite, has been tracked extensively since its accidental collision with the defunct Russian satellite Cosmos 2251 in 2009. This event, occurring at high speed in low Earth orbit (LEO), generated thousands of pieces of space debris, significantly increasing the risk of further collisions. The Iridium 33 debris cloud has impacted space traffic management and orbital debris mitigation strategies, making it a subject of ongoing study in space situational awareness.

Loading next visibility...
Identifier
34926, 1997-051NF
Orbit
LEO
Country
Flag of USUS
Related business
Manufacturer
Unknown
Mission
Spacecraft
Bus & Motor
Unknown
Mass
Unknown
Launch date (UTC)
1997-09-14 (28 years ago)
Launch vehicle
Unknown
Launch site
Tyuratam Missile And Space Complex (TTMTR)
Object type
Payload
Rocket body
Debris
Shape & HBR
Unknown shape, 0.1 m
Radar Cross Section
Small (<0.1 m²)

Expand to show TLE details & history
Last TLE update: 23 hours ago

TLE from 23 hours ago
0 IRIDIUM 33 DEB
1 34926U 97051NF  25352.50039189  .00021041  00000-0  47273-2 0  9991
2 34926  86.1318   5.6024 0074660 272.8788 246.5366 14.54673553865403
Epoch: 2025-12-18T12:00Z
TLE epoch observation values (Epoch: 2025-12-18T12:00:33.859Z)
Latitude
21.32421°
Longitude
-83.3981°
Altitude
734.606 km
Speed
7.478 km/s
True Right ascension
12h 16m 23s
True Declination
21° 12' 27"
Sunlit
Object was in daylight at epoch
Visualization orbit readout
Latitude
Unknown
Longitude
Unknown
Altitude
Unknown
Speed
Unknown
Apparent Right ascension
Unknown
Apparent Declination
Unknown
Sunlit
N/A
Visualization observer readout
Local Sidereal Time
10:16:11
Azimuth
Unknown
Elevation
Unknown
Doppler factor
Unknown
Orbital elements
Apogee altitude
760.266 km
Perigee altitude
654.466 km
Semi-major axis
7,085.503 km
Eccentricity
0.00747
Inclination
86.1318°
RAAN
5.6024°
Arg. of periapsis
272.8788°
True anomaly
245.75473°
Mean anomaly
246.5366°
Eccentric anomaly
246.14537°
Mean motion
3.63904 °/min
Orbital period
98.93 mins
BSTAR
0.0047273
Loading maneuver chart data...
Computing Atmospheric mass density...
Loading historical data...
Loading historical data...
Loading historical data...
Loading historical data...
Loading historical data...
Loading historical data...
Loading historical data...

Documentation

Showing up to 5 results
|